星链-1492 (STARLINK-1492 )

导读 | 豆包AI

STARLINK-1492是美国太空探索技术公司(SpaceX)星链计划中的一颗卫星,于2020年6月13日发射升空,属于星链星座的组成部分,旨在为全球提供高速互联网接入服务,尤其服务偏远地区、移动场景与海洋航空等传统网络覆盖盲区,是星链低轨卫星互联网建设中的一环。

基本信息
目录编号:
45779
目录名称:
STARLINK-1492
国际标识:
2020-038BB
轨道中心:
EARTH
卫星名称:
星链-1492
卫星全名:
星链-1492 (STARLINK-1492 )
卫星状态:
已陨落 最后检测时间 2025-01-28
发射日期:
2020-06-13 UTC
国别 :
美国 (US)
星等 :
--
轨道信息
数据来源 国际轨道数据
星历时间: 2025-01-28T15:03:10+0800
轨道信息已过期409天
半长轴: 6535.339km
偏心率: 0.0004766
轨道倾角: 52.985°
近地点辐角 82.957°
升交点赤经 57.531°
平近点角 347.181°
近地点: 154.089km
远地点: 160.319km
周期: 87.632分钟
每日圈数: 16.432385
详细信息
固有亮度:
5
最大亮度:
2.5
卫星平台:
Starlink V1.0
覆盖范围:
全球
运营商:
太空探索技术公司
运营商所在国:
美国
制造商(研发单位):
太空探索技术公司
制造商所在国:
美国
使用方式:
暂无
卫星简介
星链(Starlink)计划是由太空探索技术公司(SpaceX)提出的一个巨型低轨卫星互联网星座项目,计划在2019年至2024年间在太空搭建由约1.2万颗卫星组成的“星链”网络,其中1584颗将部署在地球上空550千米处的近地轨道,并从2020年开始工作。该卫星仍在工作。